BAW85W EGHQ-EGPF

Flight info

Callsign BAW85W
Flight time 1h 6m
Altitude 23000
Route EPACE N91 CARWI/N0417F240 N864 AVTIC N38 ANJAK/N0426F260 N38 NOKIN/N0416F240 P16 RIBEL/N0469F380 DCT ASLIB
Aircraft L101/H-SDFGHIRWXY/S

Departure

Time 2026-04-29 08:34
Airport Cornwall Airport Newquay (EGHQ)

Arrival

Time 2026-04-29 09:40
Airport Glasgow Airport (EGPF)
Time Latitude Longitude Altitude Speed Heading
2026-04-29 07:54 50.43636 -4.99516 357 ft 0 kts 176°
2026-04-29 08:18 50.43637 -4.99516 346 ft 1 kts 176°
2026-04-29 08:19 50.43652 -4.99517 355 ft 2 kts 176°
2026-04-29 08:19 50.43673 -4.99520 355 ft 3 kts 176°
2026-04-29 08:19 50.43693 -4.99522 359 ft 3 kts 176°
2026-04-29 08:19 50.43713 -4.99524 361 ft 3 kts 176°
2026-04-29 08:20 50.43725 -4.99525 356 ft 1 kts 176°
2026-04-29 08:20 50.43726 -4.99525 356 ft 9 kts 176°
2026-04-29 08:23 50.43725 -4.99525 356 ft 1 kts 176°
2026-04-29 08:23 50.43722 -4.99520 357 ft 1 kts 143°
2026-04-29 08:23 50.43722 -4.99514 361 ft 1 kts 114°
2026-04-29 08:24 50.43724 -4.99507 361 ft 1 kts 70°
2026-04-29 08:24 50.43729 -4.99504 361 ft 1 kts 30°
2026-04-29 08:24 50.43761 -4.99499 359 ft 7 kts 359°
2026-04-29 08:24 50.43815 -4.99501 361 ft 9 kts 358°
2026-04-29 08:25 50.43895 -4.99504 360 ft 14 kts
2026-04-29 08:25 50.44017 -4.99496 354 ft 20 kts
2026-04-29 08:25 50.44166 -4.99482 356 ft 22 kts
2026-04-29 08:25 50.44259 -4.99498 367 ft 11 kts 328°
2026-04-29 08:26 50.44316 -4.99627 367 ft 18 kts 299°
2026-04-29 08:26 50.44393 -4.99828 359 ft 26 kts 301°
2026-04-29 08:26 50.44481 -5.00057 358 ft 24 kts 300°
2026-04-29 08:26 50.44556 -5.00265 351 ft 23 kts 300°
2026-04-29 08:27 50.44646 -5.00496 331 ft 23 kts 301°
2026-04-29 08:27 50.44733 -5.00725 328 ft 19 kts 300°
2026-04-29 08:27 50.44799 -5.00912 323 ft 19 kts 288°
2026-04-29 08:27 50.44780 -5.01102 319 ft 16 kts 225°
2026-04-29 08:28 50.44706 -5.01164 318 ft 7 kts 182°
2026-04-29 08:28 50.44680 -5.01131 320 ft 5 kts 123°
2026-04-29 08:28 50.44679 -5.01129 320 ft 0 kts 123°
2026-04-29 08:33 50.44545 -5.00785 325 ft 87 kts 120°
2026-04-29 08:33 50.44076 -4.99531 483 ft 168 kts 117°
2026-04-29 08:34 50.43472 -4.98059 2196 ft 146 kts 116°
2026-04-29 08:34 50.42899 -4.96763 3842 ft 151 kts 118°
2026-04-29 08:34 50.42262 -4.95300 4943 ft 172 kts 119°
2026-04-29 08:34 50.41563 -4.93692 5573 ft 181 kts 120°
2026-04-29 08:35 50.40832 -4.92013 5692 ft 197 kts 120°
2026-04-29 08:35 50.40018 -4.90054 5808 ft 232 kts 113°
2026-04-29 08:35 50.39642 -4.87449 5978 ft 265 kts 89°
2026-04-29 08:35 50.40043 -4.84587 6814 ft 270 kts 71°
2026-04-29 08:36 50.40878 -4.82085 8349 ft 247 kts 63°
2026-04-29 08:36 50.41794 -4.79858 9639 ft 242 kts 60°
2026-04-29 08:36 50.42772 -4.77613 10264 ft 258 kts 60°
2026-04-29 08:36 50.43846 -4.75174 10453 ft 285 kts 58°
2026-04-29 08:37 50.45118 -4.72637 10566 ft 313 kts 53°
2026-04-29 08:37 50.46635 -4.70021 10682 ft 335 kts 50°
2026-04-29 08:37 50.48321 -4.67345 10812 ft 354 kts 48°
2026-04-29 08:37 50.50117 -4.64611 11211 ft 360 kts 47°
2026-04-29 08:38 50.51928 -4.61921 11836 ft 359 kts 47°
2026-04-29 08:38 50.53763 -4.59214 12279 ft 363 kts 47°
2026-04-29 08:38 50.55599 -4.56506 12894 ft 363 kts 47°
2026-04-29 08:38 50.57453 -4.53762 13324 ft 366 kts 47°
2026-04-29 08:39 50.59314 -4.51001 13784 ft 369 kts 47°
2026-04-29 08:39 50.61180 -4.48225 14330 ft 368 kts 47°
2026-04-29 08:39 50.63038 -4.45461 14913 ft 366 kts 47°
2026-04-29 08:39 50.64883 -4.42717 15480 ft 364 kts 47°
2026-04-29 08:40 50.66699 -4.40010 16053 ft 362 kts 48°
2026-04-29 08:40 50.68526 -4.37279 16659 ft 361 kts 48°
2026-04-29 08:40 50.70341 -4.34560 17243 ft 359 kts 48°
2026-04-29 08:40 50.72148 -4.31850 17881 ft 357 kts 49°
2026-04-29 08:41 50.73944 -4.29150 18513 ft 356 kts 49°
2026-04-29 08:41 50.75733 -4.26459 19058 ft 354 kts 49°
2026-04-29 08:41 50.77511 -4.23779 19628 ft 352 kts 49°
2026-04-29 08:41 50.79276 -4.21113 20179 ft 350 kts 49°
2026-04-29 08:42 50.81034 -4.18455 20744 ft 347 kts 50°
2026-04-29 08:42 50.82778 -4.15814 21306 ft 347 kts 50°
2026-04-29 08:42 50.84524 -4.13161 21774 ft 348 kts 50°
2026-04-29 08:42 50.86270 -4.10501 22261 ft 349 kts 50°
2026-04-29 08:43 50.88020 -4.07829 22751 ft 349 kts 50°
2026-04-29 08:43 50.89768 -4.05156 23243 ft 349 kts 50°
2026-04-29 08:43 50.91514 -4.02484 23753 ft 349 kts 51°
2026-04-29 08:43 50.93257 -3.99813 24187 ft 348 kts 51°
2026-04-29 08:44 50.94975 -3.97179 24604 ft 348 kts 51°
2026-04-29 08:44 50.96724 -3.94485 25056 ft 354 kts 51°
2026-04-29 08:44 50.98506 -3.91727 25490 ft 361 kts 51°
2026-04-29 08:44 51.00324 -3.88903 25946 ft 368 kts 51°
2026-04-29 08:45 51.02171 -3.86028 26391 ft 374 kts 51°
2026-04-29 08:45 51.04042 -3.83113 26845 ft 379 kts 51°
2026-04-29 08:45 51.05945 -3.80149 27315 ft 384 kts 51°
2026-04-29 08:45 51.07863 -3.77161 27763 ft 388 kts 51°
2026-04-29 08:46 51.09802 -3.74139 28250 ft 392 kts 51°
2026-04-29 08:46 51.11760 -3.71091 28754 ft 395 kts 51°
2026-04-29 08:46 51.13709 -3.68056 29250 ft 397 kts 51°
2026-04-29 08:46 51.15690 -3.64970 29760 ft 400 kts 51°
2026-04-29 08:47 51.17685 -3.61861 30273 ft 401 kts 51°
2026-04-29 08:47 51.19682 -3.58745 30782 ft 402 kts 51°
2026-04-29 08:47 51.21688 -3.55614 31269 ft 402 kts 51°
2026-04-29 08:47 51.23040 -3.53576 31591 ft 404 kts 49°
2026-04-29 08:48 51.25200 -3.50670 32100 ft 407 kts 45°
2026-04-29 08:48 51.27440 -3.47888 32634 ft 408 kts 45°
2026-04-29 08:48 51.29683 -3.45107 33136 ft 406 kts 45°
2026-04-29 08:48 51.31900 -3.42310 33665 ft 406 kts 46°
2026-04-29 08:49 51.34113 -3.39498 34181 ft 405 kts 46°
2026-04-29 08:49 51.36327 -3.36698 34663 ft 405 kts 45°
2026-04-29 08:49 51.38564 -3.33934 35111 ft 407 kts 40°
2026-04-29 08:49 51.41125 -3.31841 35517 ft 423 kts 24°
2026-04-29 08:50 51.44036 -3.30813 35955 ft 432 kts 16°
2026-04-29 08:50 51.47024 -3.29972 36182 ft 437 kts 18°
2026-04-29 08:50 51.50031 -3.28967 36244 ft 446 kts 18°
2026-04-29 08:50 51.53062 -3.27947 36206 ft 457 kts 17°
2026-04-29 08:51 51.56240 -3.27034 36244 ft 466 kts 15°
2026-04-29 08:51 51.62644 -3.25597 36367 ft 462 kts 14°
2026-04-29 08:52 51.69015 -3.24262 36387 ft 461 kts 14°
2026-04-29 08:52 51.75393 -3.22919 36398 ft 462 kts 14°
2026-04-29 08:53 51.81748 -3.21596 36388 ft 458 kts 14°
2026-04-29 08:53 51.88056 -3.20288 36382 ft 456 kts 14°
2026-04-29 08:54 51.94375 -3.19485 36364 ft 460 kts
2026-04-29 08:54 52.00779 -3.19034 36322 ft 460 kts 10°
2026-04-29 08:55 52.07180 -3.18522 36333 ft 459 kts 10°
2026-04-29 08:55 52.13576 -3.18016 36336 ft 459 kts 10°
2026-04-29 08:56 52.19929 -3.17533 36339 ft 459 kts 10°
2026-04-29 08:56 52.26322 -3.17035 36340 ft 459 kts 10°
2026-04-29 08:57 52.32716 -3.16533 36349 ft 460 kts 10°
2026-04-29 08:57 52.39117 -3.16039 36372 ft 460 kts 10°
2026-04-29 08:58 52.45516 -3.15542 36368 ft 460 kts 10°
2026-04-29 08:58 52.51910 -3.15047 36360 ft 459 kts
2026-04-29 08:59 52.58294 -3.14548 36376 ft 459 kts
2026-04-29 08:59 52.64641 -3.14052 36384 ft 459 kts
2026-04-29 09:00 52.71020 -3.13531 36377 ft 456 kts 13°
2026-04-29 09:00 52.74062 -3.12433 36317 ft 440 kts 28°
2026-04-29 09:00 52.76770 -3.10252 36392 ft 429 kts 36°
2026-04-29 09:01 52.82030 -3.05429 36396 ft 435 kts 33°
2026-04-29 09:01 52.87539 -3.01159 36392 ft 438 kts 30°
2026-04-29 09:02 52.93235 -2.97372 36400 ft 443 kts 26°
2026-04-29 09:02 52.99024 -2.93850 36384 ft 442 kts 26°
2026-04-29 09:03 53.04748 -2.90306 36393 ft 442 kts 26°
2026-04-29 09:03 53.10518 -2.86754 36393 ft 442 kts 26°
2026-04-29 09:04 53.16284 -2.83178 36395 ft 442 kts 26°
2026-04-29 09:04 53.22048 -2.79597 36393 ft 442 kts 26°
2026-04-29 09:05 53.27810 -2.76019 36407 ft 442 kts 26°
2026-04-29 09:05 53.33576 -2.72429 36408 ft 442 kts 26°
2026-04-29 09:06 53.39341 -2.68831 36404 ft 442 kts 26°
2026-04-29 09:06 53.45067 -2.65246 36420 ft 442 kts 26°
2026-04-29 09:07 53.50830 -2.61607 36422 ft 442 kts 26°
2026-04-29 09:07 53.56580 -2.57963 36431 ft 442 kts 26°
2026-04-29 09:08 53.62343 -2.54321 36426 ft 442 kts 26°
2026-04-29 09:08 53.68105 -2.50670 36422 ft 442 kts 26°
2026-04-29 09:09 53.73860 -2.46993 36415 ft 441 kts 26°
2026-04-29 09:09 53.79606 -2.43330 36424 ft 441 kts 26°
2026-04-29 09:10 53.85316 -2.39682 36435 ft 441 kts 26°
2026-04-29 09:10 53.91053 -2.36004 36433 ft 441 kts 26°
2026-04-29 09:11 53.96852 -2.32526 36418 ft 447 kts 17°
2026-04-29 09:11 53.99985 -2.32178 36372 ft 458 kts 359°
2026-04-29 09:11 54.03103 -2.33467 36439 ft 466 kts 345°
2026-04-29 09:12 54.09178 -2.37703 36495 ft 476 kts 342°
2026-04-29 09:12 54.15219 -2.42393 36466 ft 478 kts 339°
2026-04-29 09:13 54.21138 -2.47639 36443 ft 479 kts 337°
2026-04-29 09:13 54.26961 -2.53027 36463 ft 477 kts 336°
2026-04-29 09:14 54.32781 -2.58481 36462 ft 477 kts 336°
2026-04-29 09:14 54.38592 -2.63972 36462 ft 477 kts 336°
2026-04-29 09:15 54.44404 -2.69492 36462 ft 476 kts 335°
2026-04-29 09:15 54.50213 -2.75030 36151 ft 480 kts 335°
2026-04-29 09:15 54.53133 -2.77821 35590 ft 477 kts 335°
2026-04-29 09:16 54.55969 -2.80547 35016 ft 467 kts 335°
2026-04-29 09:16 54.58768 -2.83246 34486 ft 456 kts 335°
2026-04-29 09:16 54.61503 -2.85885 33901 ft 445 kts 335°
2026-04-29 09:16 54.64180 -2.88467 33250 ft 437 kts 335°
2026-04-29 09:17 54.66819 -2.91011 32585 ft 431 kts 335°
2026-04-29 09:17 54.69417 -2.93519 31957 ft 425 kts 335°
2026-04-29 09:17 54.71978 -2.95997 31318 ft 419 kts 335°
2026-04-29 09:17 54.74510 -2.98449 30699 ft 413 kts 335°
2026-04-29 09:18 54.77000 -3.00865 30005 ft 408 kts 335°
2026-04-29 09:18 54.79467 -3.03263 29310 ft 403 kts 335°
2026-04-29 09:18 54.81895 -3.05631 28632 ft 398 kts 335°
2026-04-29 09:18 54.84294 -3.07993 27954 ft 394 kts 335°
2026-04-29 09:19 54.86662 -3.10351 27266 ft 391 kts 335°
2026-04-29 09:19 54.89015 -3.12701 26609 ft 388 kts 335°
2026-04-29 09:19 54.91318 -3.14987 25969 ft 385 kts 335°
2026-04-29 09:19 54.93636 -3.17274 25513 ft 378 kts 335°
2026-04-29 09:20 54.95895 -3.19501 25101 ft 370 kts 335°
2026-04-29 09:20 54.98114 -3.21689 24662 ft 363 kts 335°
2026-04-29 09:20 55.00303 -3.23846 24262 ft 357 kts 335°
2026-04-29 09:20 55.02444 -3.25964 23832 ft 351 kts 335°
2026-04-29 09:21 55.04557 -3.28062 23358 ft 347 kts 335°
2026-04-29 09:21 55.06644 -3.30132 22891 ft 344 kts 335°
2026-04-29 09:21 55.08722 -3.32193 22409 ft 342 kts 336°
2026-04-29 09:21 55.10754 -3.34208 21950 ft 338 kts 336°
2026-04-29 09:22 55.12803 -3.36240 21492 ft 340 kts 336°
2026-04-29 09:22 55.14873 -3.38287 21037 ft 343 kts 336°
2026-04-29 09:22 55.16940 -3.40338 20577 ft 340 kts 336°
2026-04-29 09:22 55.18982 -3.42377 20164 ft 334 kts 336°
2026-04-29 09:23 55.20986 -3.44385 19768 ft 330 kts 336°
2026-04-29 09:23 55.22966 -3.46370 19335 ft 325 kts 336°
2026-04-29 09:23 55.24924 -3.48332 18934 ft 322 kts 336°
2026-04-29 09:23 55.26835 -3.50245 18506 ft 319 kts 336°
2026-04-29 09:24 55.28755 -3.52165 18056 ft 318 kts 336°
2026-04-29 09:24 55.30679 -3.54088 17607 ft 318 kts 336°
2026-04-29 09:24 55.32600 -3.56010 17149 ft 317 kts 336°
2026-04-29 09:24 55.34515 -3.57933 16726 ft 316 kts 336°
2026-04-29 09:25 55.36420 -3.59850 16247 ft 315 kts 336°
2026-04-29 09:25 55.38319 -3.61761 15741 ft 314 kts 336°
2026-04-29 09:25 55.40214 -3.63670 15268 ft 314 kts 335°
2026-04-29 09:25 55.42108 -3.65578 14790 ft 313 kts 335°
2026-04-29 09:26 55.44004 -3.67491 14306 ft 313 kts 335°
2026-04-29 09:26 55.45893 -3.69401 13779 ft 313 kts 335°
2026-04-29 09:26 55.47778 -3.71303 13237 ft 312 kts 334°
2026-04-29 09:26 55.49649 -3.73194 12807 ft 307 kts 334°
2026-04-29 09:27 55.51449 -3.75085 12398 ft 303 kts 332°
2026-04-29 09:27 55.53223 -3.77064 11984 ft 300 kts 332°
2026-04-29 09:27 55.55017 -3.78935 11480 ft 299 kts 334°
2026-04-29 09:27 55.56836 -3.80712 10996 ft 298 kts 335°
2026-04-29 09:28 55.58661 -3.82479 10472 ft 300 kts 334°
2026-04-29 09:28 55.60469 -3.84270 9881 ft 295 kts 334°
2026-04-29 09:28 55.62226 -3.86059 9300 ft 286 kts 333°
2026-04-29 09:28 55.63923 -3.87805 8718 ft 279 kts 333°
2026-04-29 09:29 55.65582 -3.89511 8172 ft 273 kts 333°
2026-04-29 09:29 55.68753 -3.92776 7626 ft 255 kts 333°
2026-04-29 09:29 55.70264 -3.94328 7537 ft 247 kts 333°
2026-04-29 09:30 55.71527 -3.96309 7414 ft 244 kts 303°
2026-04-29 09:30 55.72179 -3.99114 7216 ft 251 kts 284°
2026-04-29 09:30 55.72526 -4.02159 6905 ft 255 kts 278°
2026-04-29 09:30 55.72780 -4.05309 6446 ft 260 kts 277°
2026-04-29 09:31 55.73002 -4.08496 5933 ft 259 kts 276°
2026-04-29 09:31 55.73211 -4.11604 5420 ft 255 kts 276°
2026-04-29 09:31 55.73417 -4.14697 4923 ft 250 kts 276°
2026-04-29 09:31 55.73601 -4.17752 4396 ft 246 kts 272°
2026-04-29 09:32 55.73675 -4.20770 3912 ft 244 kts 270°
2026-04-29 09:32 55.73703 -4.23783 3379 ft 243 kts 269°
2026-04-29 09:32 55.73716 -4.26715 3124 ft 231 kts 268°
2026-04-29 09:32 55.73721 -4.28579 2987 ft 224 kts 269°
2026-04-29 09:33 55.73732 -4.31964 2923 ft 195 kts 268°
2026-04-29 09:33 55.73744 -4.34357 3036 ft 195 kts 269°
2026-04-29 09:33 55.73755 -4.36795 2991 ft 198 kts 269°
2026-04-29 09:33 55.73759 -4.38457 2920 ft 199 kts 268°
2026-04-29 09:34 55.73762 -4.40855 2882 ft 195 kts 268°
2026-04-29 09:34 55.73771 -4.43265 2890 ft 196 kts 269°
2026-04-29 09:34 55.73780 -4.45692 2885 ft 196 kts 269°
2026-04-29 09:34 55.73789 -4.48104 2896 ft 195 kts 269°
2026-04-29 09:35 55.73799 -4.50516 2906 ft 197 kts 269°
2026-04-29 09:35 55.73816 -4.52952 2892 ft 198 kts 270°
2026-04-29 09:35 55.74045 -4.55356 2717 ft 196 kts 284°
2026-04-29 09:35 55.74552 -4.57468 2876 ft 178 kts 301°
2026-04-29 09:36 55.75413 -4.59016 2720 ft 175 kts 330°
2026-04-29 09:36 55.76554 -4.59495 2674 ft 169 kts
2026-04-29 09:36 55.77653 -4.58829 2461 ft 167 kts 31°
2026-04-29 09:36 55.78650 -4.57844 2359 ft 160 kts 33°
2026-04-29 09:37 55.79581 -4.56868 2167 ft 153 kts 37°
2026-04-29 09:37 55.80422 -4.55785 1791 ft 146 kts 42°
2026-04-29 09:37 55.81145 -4.54593 1499 ft 141 kts 48°
2026-04-29 09:37 55.81836 -4.53300 1370 ft 147 kts 49°
2026-04-29 09:38 55.82548 -4.51958 1216 ft 147 kts 49°
2026-04-29 09:38 55.83250 -4.50620 1043 ft 147 kts 49°
2026-04-29 09:38 55.83936 -4.49347 752 ft 138 kts 46°
2026-04-29 09:38 55.84588 -4.48184 466 ft 131 kts 46°
2026-04-29 09:39 55.85252 -4.46978 322 ft 138 kts 48°
2026-04-29 09:39 55.85909 -4.45730 174 ft 138 kts 48°
2026-04-29 09:39 55.86550 -4.44537 35 ft 126 kts 47°
2026-04-29 09:39 55.87032 -4.43634 34 ft 60 kts 46°
2026-04-29 09:40 55.87197 -4.43292 34 ft 23 kts 79°
2026-04-29 09:40 55.87202 -4.43025 34 ft 15 kts 90°
2026-04-29 09:40 55.87201 -4.42849 34 ft 12 kts 90°
2026-04-29 09:40 55.87192 -4.42759 32 ft 5 kts 136°
2026-04-29 09:41 55.87142 -4.42762 34 ft 11 kts 199°
2026-04-29 09:41 55.87055 -4.42817 34 ft 16 kts 200°
2026-04-29 09:41 55.86940 -4.42903 34 ft 20 kts 209°
2026-04-29 09:41 55.86858 -4.43010 34 ft 16 kts 236°
2026-04-29 09:42 55.86821 -4.43221 34 ft 20 kts 255°
2026-04-29 09:42 55.86780 -4.43467 34 ft 16 kts 253°
2026-04-29 09:42 55.86749 -4.43650 34 ft 18 kts 253°
2026-04-29 09:42 55.86686 -4.43850 34 ft 20 kts 227°
2026-04-29 09:43 55.86590 -4.44020 34 ft 15 kts 209°
2026-04-29 09:43 55.86498 -4.43984 34 ft 11 kts 144°
2026-04-29 09:43 55.86495 -4.43891 32 ft 9 kts 67°
2026-04-29 09:43 55.86510 -4.43839 34 ft 3 kts 60°
2026-04-29 09:44 55.86511 -4.43835 34 ft 0 kts 60°